Find UHF F/O F10

NORAD ID: 25967 Int'l Des: 1999-063 Owner: PMW146 Country: US operational
HEOCIRCULARGSO

Live-Position

3D-Globus wird geladen...

Über UHF F/O F10

Beschreibung wird geladen...

Nächste Überflüge

Passes for default location (London). Set your location on the main map for personalized predictions.

Höhenverlauf

Loading altitude history...

Zweizeiliger Elementsatz

1 25967U 99063A 26105.08127281 -.00000178 00000-0 00000+0 0 9995
2 25967 9.8531 27.5437 0003990 324.4412 217.7229 1.00274793 96712
Epoch: 15. Apr. 2026 • Age: 47 hours

Aktueller Status

Höhe 35800.9 km
Geschwindigkeit 3.07 km/s
Subsatellitenpunkt 2.57°N, 22.58°W
Startdatum 23. Nov. 1999
Alter 26.3 years
Typ other

Technische Details

Klassifizierung Payload
Masse 3205.00 kg
Trockenmasse 1350.00 kg
Gesamtmasse 3205.00 kg
Länge 6.70 m
Durchmesser 3.40 m
Spannweite 26.20 m
Form Box + 2 Pan
Hersteller HSES
Bus-Typ HS-601
Phasenstatus In Orbit
Besitzer/Staat PMW146/US

Most Searched